Location: A�t �Alizem
(31.2076°N, 8.7872°W)
Time: 17:15:54
(UTC+00:00)

deb Explorer IX - Pass Details

Date: 30 June 2021
Orbit: 541 x 1234 km, 38.9° (Epoch: 03 August)

Event Time Altitude Azimuth Distance (km) Brightness Sun altitude
Exits shadow 02:05:42 18° 104° (ESE) 1,988 ? -31.8°
Drops below altitude 10° 02:07:19 10° 107° (ESE) 2,574 ? -31.6°
Sets 02:10:11 0° 109° (ESE) 3,636 ? -31.4°
